#timestamp,LO_Frequency,Hit,StdDev 
1656226815.3,286047004.2,N
1656226835.2,286047003.9,N
1656226855.0,286047003.9,N
1656226855.9,286047003.9,N
1656226875.8,286047004.2,N
1656226895.6,286047004.1,N
1656226915.4,286047001.3,N
1656226935.3,286047003.8,N
1656226955.1,286047001.3,N
1656226975.8,286047001.8,N
1656226995.7,286047003.7,N
1656227015.5,286047001.3,N
1656227035.4,286047004.1,N
1656227055.2,286047001.3,N
1656227075.0,286047004.0,N
1656227075.9,286047004.0,N
1656227095.8,286047004.0,N
1656227115.6,286047003.5,N
1656227135.5,286047004.3,Y
1656227155.3,286047000.6,P
1656227175.1,286047000.4,N
1656227195.9,286047000.6,N
1656227215.7,286047000.1,N
1656227235.5,286047000.5,N
1656227255.4,286046999.7,N
1656227275.2,286047000.0,N
1656227295.1,286047000.6,N
1656227296.0,286047000.6,N
1656227315.8,286046999.8,N
1656227335.6,286047000.1,N
1656227355.5,286047000.4,N
1656227375.3,286047000.5,N
1656227395.1,286047000.8,N
1656227415.9,286047000.0,N
1656227435.7,286047000.6,N
1656227455.6,286047000.5,N
1656227475.4,286047000.8,N
1656227495.2,286047000.8,N
1656227515.1,286047000.9,N
1656227516.0,286047000.9,N
1656227535.8,286047000.6,N
1656227555.7,286046999.9,N
1656227575.5,286047001.0,N
1656227595.3,286047000.6,N
1656227615.2,286047000.8,N
1656227635.0,286046998.6,N
1656227635.9,286046998.6,N
1656227655.7,286046998.2,N
1656227675.6,286046998.4,N
1656227695.4,286046998.2,N
1656227715.3,286046998.7,N
1656227735.1,286046998.1,N
1656227755.8,286047000.0,N
1656227775.7,286046999.8,N
1656227795.5,286047000.3,N
1656227815.4,286047001.1,N
1656227835.2,286047000.7,N
1656227855.1,286047000.9,N
1656227856.0,286047000.9,N
1656227875.8,286047001.0,N
1656227895.6,286047000.5,N
1656227915.5,286046999.8,N
1656227935.3,286046999.9,N
1656227955.2,286047000.1,N
1656227975.9,286046999.7,N
1656227995.7,286047002.7,N
1656228015.6,286047000.1,N
1656228035.4,286047006.8,Y
1656228055.3,286047009.9,P
1656228075.1,286047008.0,N
1656228095.8,286047007.2,N
1656228115.7,286047005.9,N
1656228135.5,286047003.0,N
1656228155.4,286047005.6,N
1656228175.2,286047005.4,N
1656228195.0,286047006.0,N
1656228195.9,286047006.0,N
1656228215.8,286047002.9,N
1656228235.6,286047003.1,N
1656228255.5,286047003.6,N
1656228275.3,286047003.9,N
1656228295.1,286047004.2,N
1656228315.9,286047004.0,N
1656228335.7,286047001.4,N
1656228355.5,286047001.6,N
1656228375.4,286047002.1,N
1656228395.2,286047002.7,N
1656228415.1,286047002.8,N
1656228416.0,286047002.8,N
1656228435.8,286047002.4,N
1656228455.6,286046999.9,N
1656228475.5,286047000.5,N
1656228495.3,286047001.0,N
1656228515.2,286047000.5,N
1656228535.9,286047000.0,N
1656228555.7,286047000.5,N
1656228575.6,286047000.4,N
1656228595.4,286047001.0,N
1656228615.2,286047000.1,N
1656228635.1,286047000.3,N
1656228636.0,286047000.3,N
1656228655.8,286047000.0,N
1656228675.7,286047000.1,N
1656228695.5,286047000.0,N
1656228715.3,286047001.0,N
1656228735.2,286047000.1,N
1656228755.0,286047002.2,N
1656228755.9,286047002.2,N
1656228775.8,286047002.8,N
1656228795.6,286046999.8,N
1656228815.4,286047002.5,N
1656228835.3,286047002.4,N
1656228855.1,286046999.7,N
1656228875.8,286047002.2,N
1656228895.7,286047001.6,N
1656228915.5,286047001.7,N
1656228935.4,286047002.5,N
1656228955.2,286047002.3,N
1656228975.0,286047002.4,N
1656228975.9,286047002.4,N
1656228995.8,286047002.0,N
1656229015.6,286047002.6,N
1656229035.4,286047002.4,N
1656229055.3,286047000.1,N
1656229075.1,286047000.2,N
1656229095.9,286047000.9,N
1656229115.7,286047000.9,N
1656229135.5,286047002.7,N
1656229155.4,286047002.7,N
1656229175.2,286047002.1,N
1656229195.1,286047002.8,N
1656229196.0,286047002.8,N
1656229215.8,286046999.7,N
1656229235.6,286047001.3,N
1656229255.5,286047002.4,N
1656229275.3,286047002.4,N
1656229295.2,286047001.6,N
1656229315.9,286047003.9,Y
1656229335.7,286047000.6,P
1656229355.6,286047000.0,N
1656229375.4,286047000.8,N
1656229395.2,286046998.2,N
1656229415.1,286046999.1,N
1656229416.0,286046999.1,N
1656229435.8,286046998.6,N
1656229455.7,286047001.2,N
1656229475.5,286046998.4,N
1656229495.3,286046998.6,N
1656229515.2,286047000.7,N
1656229535.0,286047000.8,N
1656229535.9,286047000.8,N
1656229555.8,286046998.4,N
1656229575.6,286046998.3,N
1656229595.4,286047001.1,N
1656229615.3,286047000.9,N
1656229635.1,286046998.5,N
1656229655.8,286047000.5,N
1656229675.7,286047000.8,N
1656229695.5,286046998.8,N
1656229715.4,286047000.7,N
1656229735.2,286046998.6,N
1656229755.0,286047000.3,N
1656229755.9,286047000.3,N
1656229775.8,286047000.1,N
1656229795.6,286046999.9,N
1656229815.5,286047000.4,N
1656229835.3,286047000.8,N
1656229855.1,286047001.2,N
1656229875.9,286047000.7,N
1656229895.7,286047000.7,N
1656229915.5,286046998.7,N
1656229935.4,286046999.0,N
1656229955.2,286046999.4,N
1656229975.1,286046998.4,N
1656229976.0,286046998.4,N
1656229995.8,286047001.2,N
1656230015.6,286047000.9,N
1656230035.5,286046998.1,N
1656230055.3,286046999.4,N
1656230075.2,286046998.7,N
1656230095.9,286046999.2,N
1656230115.7,286046999.0,N
1656230135.6,286046998.6,N
1656230155.4,286047001.0,N
1656230175.2,286047001.0,N
1656230195.1,286047000.4,N
1656230196.0,286047000.4,N
1656230215.8,286046999.8,N
1656230235.7,286047000.2,N
1656230255.5,286046999.7,N
1656230275.3,286047002.5,N
1656230295.2,286047002.4,N
1656230315.0,286047002.4,N
1656230315.9,286047002.4,N
1656230335.8,286047001.0,N
1656230355.6,286046999.9,N
1656230375.4,286047002.7,N
1656230395.3,286047002.6,N
